www.pogodaiklimat.ru

Погода и климат >> Архив погоды >> Норвегия >> Маяк Svinoy


ПОГОДА на Маяке Svinoy

  • Прогноз погоды на Маяке Svinoy
  • Монитор погоды на Маяке Svinoy

АРХИВ ПОГОДЫ на Маяке Svinoy

Время (UTC), дата Ветер
(напр.,м/с)
 
Видим.   Явления Облачность Т
(С)
Тd
(С)
f
(%)
Тe
(С)
Тes
(С)
Комфортность P
(гПа)
Po
(гПа)
Тmin
(С)
Tmax
(С)
R
(мм)
R24
(мм)
S
(см)
22 12.09 З 13-16
{18}
н/о н/о +11.7 +8.2 79 +7 +7 1010.2 1005.7
23 12.09 З 16-18
{18}
н/о н/о +12.1 +8.0 76 +8 +8 1009.9 1005.4
00 13.09 З 14-17
{19}
н/о н/о +12.2 +7.7 74 +8 +8 1010.7 1006.2
01 13.09 З 14-17
{18}
н/о н/о +12.1 +8.0 76 +8 +8 1011.5 1007.0
02 13.09 З 14-16
{17}
н/о н/о +12.0 +6.9 71 +8 +8 1011.6 1007.1
03 13.09 З 17-19
{19}
н/о н/о +11.8 +6.3 69 +7 +7 1011.5 1007.0
04 13.09 З 14-17
{21}
н/о н/о +10.8 +7.3 79 +6 +6 1012.6 1008.1
05 13.09 З 12-16
{16}
н/о н/о +11.4 +7.7 78 +7 +7 1013.2 1008.7
06 13.09 З 13-16
{21}
н/о н/о +11.5 +6.0 69 +7 +7 1013.5 1009.0 +10.6 +12.5
07 13.09 З 13-16
{17}
н/о н/о +11.6 +7.5 76 +7 +7 1014.2 1009.7
08 13.09 З 10-12
{21}
н/о н/о +11.0 +5.3 68 +7 +7 1015.2 1010.7
09 13.09 З 11-15
{15}
н/о н/о +11.3 +6.0 70 +7 +7 1015.4 1010.9
10 13.09 З 12 н/о н/о +11.9 +6.2 68 +8 +8 1015.9 1011.4
11 13.09 З 13 н/о н/о +11.7 +6.8 72 +8 +8 1016.2 1011.7
12 13.09 З 14
{24}
н/о н/о +10.3 +6.6 78 +5 +5 1016.8 1012.3
13 13.09 З 11 н/о н/о +11.9 +7.4 74 +8 +8 1016.7 1012.2
14 13.09 З 13 н/о н/о +12.1 +6.6 69 +8 +8 1016.2 1011.7
15 13.09 З 16 н/о н/о +11.6 +7.5 76 +7 +7 1016.8 1012.3
16 13.09 З 16 н/о н/о +12.1 +7.0 71 +8 +8 1017.0 1012.5
17 13.09 З 16 н/о н/о +11.6 +7.1 74 +7 +7 1017.4 1012.9
18 13.09 З 18
{25}
н/о н/о +11.9 +7.6 75 +7 +7 1017.9 1013.4 +12.4
19 13.09 З 17 н/о н/о +10.4 +5.0 69 +5 +5 1019.2 1014.7
20 13.09 З 16 н/о н/о +11.8 +7.3 74 +7 +7 1019.0 1014.5
21 13.09 З 11 н/о н/о +11.1 +6.5 73 +7 +7 1019.5 1015.0
22 13.09 З 11 н/о н/о +10.9 +7.2 78 +7 +7 1019.8 1015.3
23 13.09 З 16 н/о н/о +11.7 +7.2 74 +7 +7 1018.9 1014.4
00 14.09 З 17
{24}
н/о н/о +11.8 +7.3 74 +7 +7 1019.0 1014.5
01 14.09 З 16-19
{21}
н/о н/о +11.9 +6.8 71 +7 +7 1020.0 1015.5
02 14.09 З 13-15
{20}
н/о н/о +11.7 +8.2 79 +7 +7 1020.1 1015.6
03 14.09 З 12 н/о н/о +11.1 +8.2 82 +7 +7 1019.7 1015.2
04 14.09 З 15-20
{21}
н/о н/о +11.7 +7.0 73 +7 +7 1018.8 1014.3
05 14.09 З 15-20
{20}
н/о н/о +11.5 +8.4 81 +7 +7 1019.2 1014.7
06 14.09 З 12-17
{22}
н/о н/о +11.7 +7.0 73 +8 +8 1019.0 1014.5 +8.9 +12.2
07 14.09 ЮЗ 14 н/о н/о +12.1 +6.8 70 +8 +8 1018.2 1013.7
09 14.09 ЮЗ 16-19
{20}
н/о н/о +12.2 +6.5 68 +8 +8 1016.8 1012.3
10 14.09 ЮЗ 18-21
{21}
н/о н/о +12.3 +7.0 70 +8 +8 1015.3 1010.8
11 14.09 ЮЗ 16-19
{21}
н/о н/о +12.1 +6.4 68 +8 +8 1014.7 1010.2
12 14.09 ЮЗ 11 н/о н/о +11.1 +8.5 84 +7 +7 1013.5 1009.0
13 14.09 Ю 12-14
{16}
н/о н/о +11.2 +8.6 84 +7 +7 1010.9 1006.4
14 14.09 ЮЗ 16-22
{24}
н/о н/о +11.4 +8.8 84 +7 +7 1008.2 1003.7
15 14.09 Ю 16-21
{23}
н/о н/о +11.3 +9.1 86 +6 +6 1005.3 1000.8
16 14.09 Ю 16-21
{22}
н/о н/о +12.0 +9.9 87 +7 +7 1002.0 997.6
17 14.09 ЮЗ 21-28
{28}
н/о н/о +13.1 +11.2 88 +8 +8 998.5 994.1
18 14.09 ЮЗ 24-30
{30}
н/о н/о +13.3 +12.8 97 +8 +8 996.4 992.0
19 14.09 ЮЗ 24-29
{29}
н/о н/о +13.2 +11.9 92 +8 +8 994.8 990.4
20 14.09 З 20-25
{32}
н/о н/о +13.3 +9.7 79 +9 +9 995.3 990.9
21 14.09 З 20-26
{28}
н/о н/о +12.3 +8.8 79 +7 +7 994.9 990.5
22 14.09 ЮЗ 24-31
{31}
н/о н/о +12.9 +7.6 70 +8 +8 992.8 988.4
23 14.09 ЮЗ 24-29
{32}
н/о н/о +12.6 +6.9 68 +8 +8 992.4 988.0
00 15.09 З 21-28
{32}
н/о н/о +11.9 +7.2 73 +7 +7 991.9 987.5
01 15.09 ЮЗ 26-30
{35}
н/о н/о +11.3 +6.5 72 +5 +5 990.0 985.6
02 15.09 ЮЗ 24-29
{32}
н/о н/о +11.8 +6.3 69 +6 +6 989.2 984.8
03 15.09 ЮЗ 25-32
{35}
н/о н/о +11.0 +7.3 78 +5 +5 987.7 983.3
04 15.09 ЮЗ 25-35
{35}
н/о н/о +9.8 +7.2 84 +3 +3 987.2 982.8
05 15.09 З 21-30
{33}
н/о н/о +10.1 +8.7 91 +4 +4 987.1 982.7
06 15.09 ЮЗ 24-29
{35}
н/о н/о +10.2 +9.6 96 +4 +4 985.6 981.2 +8.9 +13.9
07 15.09 ЮЗ 21-27
{28}
н/о н/о +10.9 +10.3 96 +5 +5 986.2 981.8
08 15.09 З 19-25
{28}
н/о н/о +11.3 +10.5 95 +6 +6 986.0 981.6
09 15.09 З 20-25
{26}
н/о н/о +11.3 +10.4 94 +6 +6 986.1 981.7
10 15.09 З 21-26
{27}
н/о н/о +11.5 +10.1 91 +6 +6 987.2 982.8
11 15.09 З 21-26
{26}
н/о н/о +11.3 +9.1 86 +6 +6 988.5 984.1
12 15.09 З 21-25
{28}
н/о н/о +11.5 +9.4 87 +6 +6 990.3 985.9
13 15.09 З 19-24
{24}
н/о н/о +11.5 +8.9 84 +6 +6 991.6 987.2
14 15.09 З 19-23
{25}
н/о н/о +10.8 +10.3 97 +5 +5 992.0 987.6
15 15.09 СЗ 17-21
{22}
н/о н/о +11.8 +9.7 87 +7 +7 994.6 990.2
16 15.09 З 17-22
{23}
н/о н/о +11.6 +10.4 92 +7 +7 996.4 992.0
17 15.09 СЗ 20-24
{24}
н/о н/о +10.9 +10.4 97 +5 +5 997.7 993.3
18 15.09 СЗ 19-24
{26}
н/о н/о +11.0 +9.8 92 +5 +5 999.1 994.7 +10.0 +11.9
19 15.09 З 20-25
{27}
н/о н/о +10.5 +8.1 85 +5 +5 1001.1 996.6
20 15.09 З 20-24
{25}
н/о н/о +10.6 +6.0 73 +5 +5 1001.9 997.4
21 15.09 З 18-22
{23}
н/о н/о +10.4 +5.2 70 +5 +5 1003.2 998.7
22 15.09 З 16-20
{24}
н/о н/о +10.4 +6.6 77 +5 +5 1004.9 1000.4
23 15.09 З 16-21
{21}
н/о н/о +10.2 +6.6 78 +5 +5 1004.6 1000.1
00 16.09 З 13-16
{27}
н/о н/о +10.1 +7.9 86 +5 +5 1005.7 1001.2
01 16.09 З 17-21
{22}
н/о н/о +9.7 +6.8 82 +4 +4 1005.3 1000.8
02 16.09 СЗ 13-16
{23}
н/о н/о +9.1 +6.6 84 +4 +4 1006.8 1002.3
03 16.09 З 16-19
{24}
н/о н/о +9.7 +4.3 69 +4 +4 1006.5 1002.0
04 16.09 З 14-17
{18}
н/о н/о +9.7 +4.7 71 +5 +5 1006.9 1002.4
05 16.09 З 12-15
{17}
н/о н/о +9.7 +4.1 68 +5 +5 1007.3 1002.8
06 16.09 З 13-15
{24}
н/о н/о +9.6 +3.6 66 +5 +5 1007.1 1002.6 +8.5 +11.2
07 16.09 З 11-14
{14}
н/о н/о +9.6 +5.4 75 +5 +5 1007.2 1002.7
08 16.09 З 9-13
{13}
н/о н/о +10.2 +4.6 68 +6 +6 1007.3 1002.8
09 16.09 ЮЗ 9-11
{12}
н/о н/о +10.2 +5.8 74 +6 +6 1006.9 1002.4
10 16.09 ЮЗ 11-14
{15}
н/о н/о +10.2 +6.2 76 +6 +6 1006.3 1001.8
11 16.09 ЮЗ 10-14
{15}
н/о н/о +10.9 +6.5 74 +7 +7 1005.9 1001.4
12 16.09 З 16-20
{22}
н/о н/о +8.9 +6.7 86 +3 +3 1005.2 1000.7
13 16.09 З 11-15
{18}
н/о н/о +9.4 +6.5 82 +4 +4 1005.3 1000.8
14 16.09 З 13-14
{17}
н/о н/о +10.2 +5.2 71 +5 +5 1005.3 1000.8
15 16.09 З 10-12
{15}
н/о н/о +10.6 +5.6 71 +7 +7 1005.1 1000.6
16 16.09 З 11-14
{16}
н/о н/о +10.4 +5.2 70 +6 +6 1004.9 1000.4
17 16.09 З 12-14
{14}
н/о н/о +10.3 +4.5 67 +6 +6 1004.2 999.7
18 16.09 З 15-17
{18}
н/о н/о +9.0 +4.8 75 +3 +3 1003.8 999.3 +8.6 +11.2
19 16.09 З 10-12
{15}
н/о н/о +8.2 +3.7 73 +3 +3 1004.0 999.5
20 16.09 З 10-21
{21}
н/о н/о +8.2 +5.0 80 +3 +3 1002.6 998.1
21 16.09 З 11-14
{21}
н/о н/о +9.0 +3.0 66 +4 +4 1003.5 999.0
22 16.09 З 10-12
{14}
н/о н/о +8.9 +2.0 62 +4 +4 1003.5 999.0
23 16.09 З 9-11
{13}
н/о н/о +8.7 +2.5 65 +4 +4 1003.6 999.1
00 17.09 З 6-9
{21}
н/о н/о +7.8 +2.7 70 +4 +4 1003.8 999.3
01 17.09 З 6-8
{9}
н/о н/о +8.5 +1.7 62 +5 +5 1003.6 999.1
02 17.09 СЗ 5-8
{9}
н/о н/о +8.5 +2.5 66 +5 +5 1003.7 999.2
03 17.09 З 6-8
{8}
н/о н/о +8.1 +3.2 71 +4 +4 1004.1 999.6
04 17.09 СЗ 5-7
{8}
н/о н/о +8.1 +1.5 63 +5 +5 1004.6 1000.1
05 17.09 СЗ 3-6
{7}
н/о н/о +8.2 +1.8 64 +6 +6 1005.3 1000.8
06 17.09 СЗ 4-6
{9}
н/о н/о +8.4 +3.3 70 +5 +5 1006.0 1001.5 +7.4 +9.6
07 17.09 З 6-7
{8}
н/о н/о +8.7 +3.6 70 +5 +5 1006.9 1002.4
08 17.09 СЗ 8-10
{11}
н/о н/о +9.1 +5.5 78 +5 +5 1007.8 1003.3
09 17.09 С 10-14
{14}
н/о н/о +8.9 +6.7 86 +4 +4 1008.7 1004.2
10 17.09 С 14-19
{19}
н/о н/о +9.6 +6.7 82 +4 +4 1009.3 1004.8
11 17.09 С 18-22
{23}
н/о н/о +9.7 +7.0 83 +4 +4 1010.5 1006.0
12 17.09 СЗ 15-18
{23}
н/о н/о +10.0 +6.9 81 +5 +5 1011.1 1006.6
13 17.09 СЗ 16-19
{22}
н/о н/о +10.4 +6.9 79 +5 +5 1011.7 1007.2
14 17.09 СЗ 16-19
{20}
н/о н/о +10.1 +7.0 81 +5 +5 1012.8 1008.3
15 17.09 СЗ 17-21
{21}
н/о н/о +10.3 +7.0 80 +5 +5 1013.9 1009.4
16 17.09 СЗ 10-12
{19}
н/о н/о +9.4 +7.2 86 +5 +5 1014.5 1010.0
17 17.09 СЗ 17-21
{21}
н/о н/о +10.3 +6.3 76 +5 +5 1014.6 1010.1
18 17.09 СЗ 12-15
{22}
н/о н/о +9.7 +6.4 80 +5 +5 1015.0 1010.5 +8.0 +10.8
19 17.09 СЗ 12-14
{16}
н/о н/о +9.5 +6.9 84 +4 +4 1015.4 1010.9
20 17.09 СЗ 10-13
{15}
н/о н/о +9.8 +7.6 86 +5 +5 1015.8 1011.3
21 17.09 СЗ 7-10
{12}
н/о н/о +10.1 +6.8 80 +6 +6 1016.1 1011.6
22 17.09 СЗ 7-10
{11}
н/о н/о +9.8 +6.9 82 +6 +6 1016.4 1011.9
23 17.09 С 12-15
{15}
н/о н/о +9.9 +5.9 76 +5 +5 1016.7 1012.2
00 18.09 С 8-11
{16}
н/о н/о +10.0 +6.0 76 +6 +6 1017.4 1012.9
01 18.09 С 11-13
{13}
н/о н/о +10.3 +4.9 69 +6 +6 1017.7 1013.2
02 18.09 С 10-12
{14}
н/о н/о +9.9 +4.1 67 +6 +6 1018.5 1014.0
03 18.09 СЗ 9-12
{12}
н/о н/о +9.6 +4.6 71 +5 +5 1018.7 1014.2
04 18.09 С 8-11
{15}
н/о н/о +10.0 +4.8 70 +6 +6 1019.4 1014.9
05 18.09 СЗ 10-12
{14}
н/о н/о +9.7 +4.5 70 +5 +5 1019.6 1015.1
06 18.09 СЗ 7-11
{15}
н/о н/о +9.1 +4.9 75 +5 +5 1020.3 1015.7 +8.7 +10.4
07 18.09 С 10-12
{15}
н/о н/о +9.7 +3.9 67 +5 +5 1020.6 1016.0
08 18.09 СЗ 9-12
{14}
н/о н/о +9.9 +4.5 69 +6 +6 1021.3 1016.7
09 18.09 СЗ 11-13
{13}
н/о н/о +10.0 +5.2 72 +5 +5 1021.7 1017.1
10 18.09 СЗ 10-12
{13}
н/о н/о +10.0 +5.2 72 +6 +6 1022.1 1017.5
11 18.09 СЗ 10-13
{14}
н/о н/о +9.7 +5.3 74 +5 +5 1022.7 1018.1
12 18.09 СЗ 10-15
{15}
н/о н/о +9.3 +6.0 80 +5 +5 1022.9 1018.3
13 18.09 СЗ 10-12
{14}
н/о н/о +9.6 +5.2 74 +5 +5 1023.3 1018.7
14 18.09 СЗ 9-11
{14}
н/о н/о +9.2 +6.5 83 +5 +5 1024.0 1019.4
15 18.09 СЗ 8-10
{12}
н/о н/о +9.5 +6.1 79 +5 +5 1024.1 1019.5
16 18.09 С 8-11
{11}
н/о н/о +9.6 +6.2 79 +5 +5 1024.5 1019.9
17 18.09 С 7-9
{10}
н/о н/о +10.0 +6.2 77 +6 +6 1024.7 1020.1
18 18.09 С 6-8
{14}
н/о н/о +9.9 +5.1 72 +7 +7 1025.1 1020.5 +8.3 +10.4
19 18.09 С 6-9
{9}
н/о н/о +9.8 +5.0 72 +6 +6 1025.5 1020.9
20 18.09 С 6-7
{8}
н/о н/о +9.7 +4.9 72 +6 +6 1025.8 1021.2
21 18.09 С 4-6
{10}
н/о н/о +9.5 +5.3 75 +7 +7 1026.1 1021.5
22 18.09 С 5-7
{7}
н/о н/о +9.6 +4.2 69 +7 +7 1026.2 1021.6
23 18.09 С 4-6
{6}
н/о н/о +9.5 +4.1 69 +7 +7 1026.4 1021.8
00 19.09 С 4-5
{10}
н/о н/о +9.5 +3.5 66 +7 +7 1026.8 1022.2
01 19.09 С 4-6
{6}
н/о н/о +9.5 +3.3 65 +7 +7 1026.7 1022.1
02 19.09 С 3-5
{5}
н/о н/о +9.4 +3.6 67 +7 +7 1026.5 1021.9
03 19.09 СЗ 3-4
{7}
н/о н/о +9.2 +3.2 66 +7 +7 1026.4 1021.8
04 19.09 СЗ 2-2
{6}
н/о н/о +8.7 +3.4 69 +7 +7 1026.4 1021.8
05 19.09 З 2-3
{3}
н/о н/о +9.2 +3.0 65 +8 +8 1026.2 1021.6
06 19.09 Ю 4-7
{7}
н/о н/о +9.0 +5.9 81 +6 +6 1026.1 1021.5 +8.6 +10.0
07 19.09 Ю 4-6
{7}
н/о н/о +9.0 +5.9 81 +6 +6 1026.1 1021.5
08 19.09 ЮВ 4-7
{8}
н/о н/о +9.2 +5.9 80 +6 +6 1026.1 1021.5
09 19.09 ЮЗ 9-12
{12}
н/о н/о +9.3 +5.1 75 +5 +5 1026.1 1021.5
10 19.09 ЮЗ 7-9
{11}
н/о н/о +9.0 +5.6 79 +5 +5 1025.7 1021.1
11 19.09 ЮЗ 8-11
{11}
н/о н/о +8.9 +5.8 81 +5 +5 1025.3 1020.7
12 19.09 ЮЗ 9-13
{13}
н/о н/о +8.7 +6.0 83 +4 +4 1024.9 1020.3
13 19.09 ЮЗ 13-14
{14}
н/о н/о +8.3 +5.9 85 +3 +3 1024.2 1019.6
14 19.09 ЮЗ 11-14
{16}
н/о н/о +8.6 +6.1 84 +3 +3 1024.1 1019.5
15 19.09 ЮЗ 9-12
{18}
н/о н/о +8.6 +6.2 85 +4 +4 1023.2 1018.6
16 19.09 Ю 9-13
{13}
н/о н/о +8.5 +6.0 84 +4 +4 1022.4 1017.8
17 19.09 Ю 9-12
{13}
н/о н/о +8.5 +6.0 84 +4 +4 1021.3 1016.7
18 19.09 Ю 10-13
{18}
н/о н/о +9.4 +6.5 82 +5 +5 1020.5 1015.9 +8.2 +9.8
19 19.09 ЮЗ 11-14
{14}
н/о н/о +10.4 +6.6 77 +6 +6 1019.6 1015.1
20 19.09 ЮЗ 13-18
{18}
н/о н/о +11.3 +7.6 78 +7 +7 1018.8 1014.3
21 19.09 ЮЗ 17-22
{22}
н/о н/о +12.0 +8.9 81 +7 +7 1018.5 1014.0
22 19.09 ЮЗ 19-24
{24}
н/о н/о +11.5 +9.1 85 +6 +6 1017.5 1013.0

 

Местоположение метеостанции Маяк Svinoy (Норвегия): широта 62.33 долгота 5.27 высота над уровнем моря 38 м.

В архиве по умолчанию представлена погода на Маяке Svinoy за последнюю неделю. Архивные данные за месяц целиком и за предыдущие месяцы, начиная с января 2011 года, Вы можете получить, выбрав интересующий диапазон дат из раскрывающегося списка и нажав кнопку "Ввод!".


*Определитесь, кто Вы:
робот инопланетянин человек

Внимание! Время в таблицах - всемирное. Для получения местного времени необходимо прибавить поправку, которая равна 1 ч.

Смотрите также архив погоды в соседних городах и на ближайших метеорологических станциях:

Погода в Берген аэропорту (Норвегия) (5 км)
Погода в Фиске (Норвегия) (30 км)
Погода на Маяке Krakenes (Норвегия) (36 км)
Погода в Аэропорту Орста-Волда (Норвегия) (45 км)
Погода в Олесунне (Норвегия) (51 км)
Погода в Олесунн аэропорту (Норвегия) (51 км)
Погода в Сандан аэропорту (Норвегия) (70 км)
Погода в Стрын-Крокене (Норвегия) (81 км)
Погода в Флоро аэропорту (Норвегия) (84 км)
Погода в Рекдале (Норвегия) (84 км)

Пояснения к столбцам:

Ветер - указаны скорость ветра в м/с - средняя за 10 мин, порывы в срок и между сроками (в фигурных скобках) и направление, откуда дует ветер: С - северный, СВ - северо-восточный, В - восточный, ЮВ - юго-восточный, Ю - южный, ЮЗ - юго-западный, З - западный, СЗ - северо-западный.
Видимость - горизонтальная дальность видимости в метрах или километрах. При видимости от 1 до 10 км при отсутствии осадков обычно наблюдается дымка, при ухудшении видимости до 1 км и менее - туман. В сухую погоду видимость может ухудшаться дымом, пылью или мглою.
Явления - указаны атмосферные явления, наблюдавшиеся в срок или в последний час перед сроком; фигурными скобками обозначены явления, наблюдавшиеся между сроками (за 1-3 часа до срока); квадратными скобками обозначены град или гололедные отложения с указанием их диаметра в мм.
Облачность - указаны через наклонную черту общая и нижняя облачность в баллах и высота нижней границы облаков в метрах; квадратными скобками обозначены формы облаков: Ci - перистые, Cs - перисто-слоистые, Cc - перисто-кучевые, Ac - высококучевые, As - высокослоистые, Sc - слоисто-кучевые, Ns - слоисто-дождевые, Cu - кучевые, Cb - кучево-дождевые. Подробнее классификацию облаков см. в Атласе облаков (PDF).
T - Температура воздуха - температура, измеренная на высоте 2 м над землей.
Td - Температура точки росы - температура, при понижении до которой содержащийся в воздухе водяной пар достигнет насыщения.
f - Относительная влажность воздуха - влажноcть воздуха, измеренная на высоте 2 м над землей.
Te - Эффективная температура - температура, которую ощущает одетый по сезону человек в тени. Характеристика душности погоды. При расчете учитывается влияние влажности воздуха и скорости ветра на теплоощущения человека.
Tes - Эффективная температура на солнце - температура, которую ощущает человек, с поправкой на солнечный нагрев. Характеристика знойности погоды. Зависит от высоты солнца над горизонтом, облачности и скорости ветра. Ночью, в пасмурную погоду, а также при ветре 12 м/с и более поправка равна нулю.
P - Атмосферное давление - приведенное к уровню моря атмосферное давление.
Po - Атмосферное давление - измеренное на уровне метеостанции атмосферное давление.
Tmin - Минимальная температура - минимум температуры воздуха на высоте 2 м над землей.
Tmax - Максимальная температура - максимум температуры воздуха на высоте 2 м над землей.
R - Количество осадков - Количество выпавших осадков за период времени, мм. При наведении курсора мыши на число - период времени, за который выпало указанное количество осадков.
R24 - Количество осадков - Количество выпавших осадков за 24 часа, мм.
S - Снежный покров - Высота снежного покрова, см. При наведении курсора мыши на число - состояние снежного покрова и степень покрытия местности в баллах.